C/2017 A1 ( PanSTARRS )

Japanese version
Home page
Updated on July 8, 2017

---------------------------------------------------------------------

* Profile

Discovery Date January 2, 2017
Magnitude 19.6 mag
Discoverer Pan-STARRS 1 telescope (Haleakala)

* Pictures

* Orbital Elements

Epoch 2017 May 7.0 TT = JDT 2457880.5
T 2017 May 17.12914 TT                                  MPCW
q   2.2904142            (2000.0)            P               Q
z  +0.0124435      Peri.    2.04529     -0.53543357     -0.53416651
 +/-0.0000096      Node   121.06622     +0.76363849     -0.63707895
e   0.9714992      Incl.   49.79519     +0.36078684     +0.55569466
From 176 observations 2017 Jan. 2-Apr. 28, mean residual 0".6.

* Magnitudes Graph

        m1 = 12.5 + 5 log d + 10.0 log r

---------------------------------------------------------------------

The orbital elements are published on M.P.E.C. 2017-N58.
The magnitudes graphs are made with Comet for Windows.

---------------------------------------------------------------------

Copyright(C) Seiichi Yoshida (comet@aerith.net). All rights reserved.